iso_date,epoch_date,Year,Hour,Min,DOY,POS_DOY,Lat,Lon,BP,Ts,Ta,has_bp,has_ts,has_ta,BuoyID,Buoy_Type,Buoy_Owner,Logistics,Hemisphere
2016-02-10T00:00:00Z,1455062400,2016,0,0,41.0,41.0,-71.7424,-167.07179,982.7,0.24,-999.0,yes,yes,no,300234063242740,BD2GI,AOML,USCG,South
2016-02-10T01:00:28Z,1455066029,2016,1,0,41.042,41.042,-71.8106,-166.18201,982.5,1.13,-999.0,yes,yes,no,300234063242740,BD2GI,AOML,USCG,South
2016-02-10T01:59:31Z,1455069571,2016,2,0,41.083,41.083,-71.8612,-165.26401,982.1,1.46,-999.0,yes,yes,no,300234063242740,BD2GI,AOML,USCG,South
2016-02-10T03:00:00Z,1455073200,2016,3,0,41.125,41.125,-71.8942,-164.3678,981.8,1.01,-999.0,yes,yes,no,300234063242740,BD2GI,AOML,USCG,South
2016-02-10T04:00:28Z,1455076829,2016,4,0,41.167,41.167,-71.9732,-163.4794,981.7,0.35,-999.0,yes,yes,no,300234063242740,BD2GI,AOML,USCG,South
2016-02-10T04:59:31Z,1455080371,2016,5,0,41.208,41.208,-72.0392,-162.7534,981.4,0.38,-999.0,yes,yes,no,300234063242740,BD2GI,AOML,USCG,South
2016-02-10T06:00:00Z,1455084000,2016,6,0,41.25,41.25,-72.1178,-161.881,981.2,-0.18,-999.0,yes,yes,no,300234063242740,BD2GI,AOML,USCG,South
2016-02-10T07:00:28Z,1455087629,2016,7,0,41.292,41.292,-72.1748,-160.9948,981.1,-0.66,-999.0,yes,yes,no,300234063242740,BD2GI,AOML,USCG,South
2016-02-10T07:59:31Z,1455091171,2016,8,0,41.333,41.333,-72.2284,-160.10339,981.0,-1.25,-999.0,yes,yes,no,300234063242740,BD2GI,AOML,USCG,South
2016-02-10T09:00:00Z,1455094800,2016,9,0,41.375,41.375,-72.2778,-159.1962,981.0,-1.69,-999.0,yes,yes,no,300234063242740,BD2GI,AOML,USCG,South
2016-02-10T10:00:28Z,1455098429,2016,10,0,41.417,41.417,-72.3032,-158.2588,980.8,-2.03,-999.0,yes,yes,no,300234063242740,BD2GI,AOML,USCG,South
2016-02-10T10:59:31Z,1455101971,2016,11,0,41.458,41.458,-72.331,-157.34039,980.7,-2.05,-999.0,yes,yes,no,300234063242740,BD2GI,AOML,USCG,South
2016-02-10T12:00:00Z,1455105600,2016,12,0,41.5,41.5,-72.3404,-156.407,980.7,-2.14,-999.0,yes,yes,no,300234063242740,BD2GI,AOML,USCG,South
2016-02-10T13:00:28Z,1455109229,2016,13,0,41.542,41.542,-72.364,-155.482,980.5,-2.01,-999.0,yes,yes,no,300234063242740,BD2GI,AOML,USCG,South
2016-02-10T13:59:31Z,1455112771,2016,14,0,41.583,41.583,-72.3914,-154.56619,980.4,-1.93,-999.0,yes,yes,no,300234063242740,BD2GI,AOML,USCG,South
2016-02-10T15:00:00Z,1455116400,2016,15,0,41.625,41.625,-72.4142,-153.67261,980.3,-1.96,-999.0,yes,yes,no,300234063242740,BD2GI,AOML,USCG,South
2016-02-10T16:00:28Z,1455120029,2016,16,0,41.667,41.667,-72.4322,-152.85941,980.4,-1.8,-999.0,yes,yes,no,300234063242740,BD2GI,AOML,USCG,South
2016-02-10T16:59:31Z,1455123571,2016,17,0,41.708,41.708,-72.4642,-152.01559,980.4,-1.71,-999.0,yes,yes,no,300234063242740,BD2GI,AOML,USCG,South
2016-02-10T18:00:00Z,1455127200,2016,18,0,41.75,41.75,-72.4594,-151.104,980.4,-1.56,-999.0,yes,yes,no,300234063242740,BD2GI,AOML,USCG,South
2016-02-10T19:00:28Z,1455130829,2016,19,0,41.792,41.792,-72.4936,-150.209,980.4,-1.33,-999.0,yes,yes,no,300234063242740,BD2GI,AOML,USCG,South
2016-02-10T19:59:31Z,1455134371,2016,20,0,41.833,41.833,-72.5238,-149.36079,980.3,-1.24,-999.0,yes,yes,no,300234063242740,BD2GI,AOML,USCG,South
2016-02-10T21:00:00Z,1455138000,2016,21,0,41.875,41.875,-72.5068,-148.5022,980.2,-1.19,-999.0,yes,yes,no,300234063242740,BD2GI,AOML,USCG,South
2016-02-10T22:00:28Z,1455141629,2016,22,0,41.917,41.917,-72.4764,-147.6976,980.4,-0.97,-999.0,yes,yes,no,300234063242740,BD2GI,AOML,USCG,South
2016-02-10T22:59:31Z,1455145171,2016,23,0,41.958,41.958,-72.2894,-147.25,980.6,-0.92,-999.0,yes,yes,no,300234063242740,BD2GI,AOML,USCG,South
2016-02-11T00:00:00Z,1455148800,2016,0,0,42.0,42.0,-72.0412,-146.85381,980.9,-0.66,-999.0,yes,yes,no,300234063242740,BD2GI,AOML,USCG,South
2016-02-11T01:00:28Z,1455152429,2016,1,0,42.042,42.042,-71.775,-146.5392,981.3,-0.22,-999.0,yes,yes,no,300234063242740,BD2GI,AOML,USCG,South
2016-02-11T01:59:31Z,1455155971,2016,2,0,42.083,42.083,-71.525,-146.22,981.5,-0.33,-999.0,yes,yes,no,300234063242740,BD2GI,AOML,USCG,South
2016-02-11T03:00:00Z,1455159600,2016,3,0,42.125,42.125,-71.3022,-145.94701,981.9,-0.61,-999.0,yes,yes,no,300234063242740,BD2GI,AOML,USCG,South
2016-02-11T04:00:28Z,1455163229,2016,4,0,42.167,42.167,-71.035,-145.5956,982.3,-0.62,-999.0,yes,yes,no,300234063242740,BD2GI,AOML,USCG,South
2016-02-11T04:59:31Z,1455166771,2016,5,0,42.208,42.208,-70.7584,-145.3042,982.9,-0.7,-999.0,yes,yes,no,300234063242740,BD2GI,AOML,USCG,South
2016-02-11T06:00:00Z,1455170400,2016,6,0,42.25,42.25,-70.5006,-144.9278,983.4,-0.83,-999.0,yes,yes,no,300234063242740,BD2GI,AOML,USCG,South
2016-02-11T07:00:28Z,1455174029,2016,7,0,42.292,42.292,-70.2282,-144.62219,984.1,-0.84,-999.0,yes,yes,no,300234063242740,BD2GI,AOML,USCG,South
2016-02-11T07:59:31Z,1455177571,2016,8,0,42.333,42.333,-69.9666,-144.325,984.8,-1.02,-999.0,yes,yes,no,300234063242740,BD2GI,AOML,USCG,South
2016-02-11T09:00:00Z,1455181200,2016,9,0,42.375,42.375,-69.7296,-144.04739,985.5,-1.43,-999.0,yes,yes,no,300234063242740,BD2GI,AOML,USCG,South
2016-02-11T10:00:28Z,1455184829,2016,10,0,42.417,42.417,-69.465,-143.72881,986.1,-1.47,-999.0,yes,yes,no,300234063242740,BD2GI,AOML,USCG,South
2016-02-11T10:59:31Z,1455188371,2016,11,0,42.458,42.458,-69.2666,-143.485,986.9,-1.7,-999.0,yes,yes,no,300234063242740,BD2GI,AOML,USCG,South
2016-02-11T12:00:00Z,1455192000,2016,12,0,42.5,42.5,-69.0,-143.1832,987.6,-1.56,-999.0,yes,yes,no,300234063242740,BD2GI,AOML,USCG,South
2016-02-11T13:00:28Z,1455195629,2016,13,0,42.542,42.542,-68.7702,-142.90781,988.8,-0.39,-999.0,yes,yes,no,300234063242740,BD2GI,AOML,USCG,South
2016-02-11T13:59:31Z,1455199171,2016,14,0,42.583,42.583,-68.7712,-142.9088,989.4,-0.37,-999.0,yes,yes,no,300234063242740,BD2GI,AOML,USCG,South
2016-02-11T15:00:00Z,1455202800,2016,15,0,42.625,42.625,-68.7722,-142.90961,989.8,-0.38,-999.0,yes,yes,no,300234063242740,BD2GI,AOML,USCG,South
2016-02-11T16:00:28Z,1455206429,2016,16,0,42.667,42.667,-68.7728,-142.91,990.4,-0.34,-999.0,yes,yes,no,300234063242740,BD2GI,AOML,USCG,South
2016-02-11T16:59:31Z,1455209971,2016,17,0,42.708,42.708,-68.7732,-142.91161,991.0,-0.34,-999.0,yes,yes,no,300234063242740,BD2GI,AOML,USCG,South
2016-02-11T18:00:00Z,1455213600,2016,18,0,42.75,42.75,-68.7744,-142.9142,991.2,-0.32,-999.0,yes,yes,no,300234063242740,BD2GI,AOML,USCG,South
2016-02-11T19:00:28Z,1455217229,2016,19,0,42.792,42.792,-68.7756,-142.9182,991.3,-0.31,-999.0,yes,yes,no,300234063242740,BD2GI,AOML,USCG,South
2016-02-11T19:59:31Z,1455220771,2016,20,0,42.833,42.833,-68.7774,-142.9234,991.5,-0.3,-999.0,yes,yes,no,300234063242740,BD2GI,AOML,USCG,South
2016-02-11T21:00:00Z,1455224400,2016,21,0,42.875,42.875,-68.7804,-142.92841,991.9,-0.29,-999.0,yes,yes,no,300234063242740,BD2GI,AOML,USCG,South
2016-02-11T22:00:28Z,1455228029,2016,22,0,42.917,42.917,-68.7836,-142.9314,992.1,-0.25,-999.0,yes,yes,no,300234063242740,BD2GI,AOML,USCG,South
2016-02-11T22:59:31Z,1455231571,2016,23,0,42.958,42.958,-68.7874,-142.9326,992.2,-0.24,-999.0,yes,yes,no,300234063242740,BD2GI,AOML,USCG,South
2016-02-12T00:00:00Z,1455235200,2016,0,0,43.0,43.0,-68.7904,-142.9324,992.5,-0.22,-999.0,yes,yes,no,300234063242740,BD2GI,AOML,USCG,South
2016-02-12T01:00:28Z,1455238829,2016,1,0,43.042,43.042,-68.7932,-142.9314,992.3,-0.21,-999.0,yes,yes,no,300234063242740,BD2GI,AOML,USCG,South
2016-02-12T01:59:31Z,1455242371,2016,2,0,43.083,43.083,-68.7952,-142.92979,992.4,-0.21,-999.0,yes,yes,no,300234063242740,BD2GI,AOML,USCG,South
2016-02-12T03:00:00Z,1455246000,2016,3,0,43.125,43.125,-68.796,-142.926,992.5,-0.23,-999.0,yes,yes,no,300234063242740,BD2GI,AOML,USCG,South
2016-02-12T04:00:28Z,1455249629,2016,4,0,43.167,43.167,-68.7952,-142.924,992.6,-0.23,-999.0,yes,yes,no,300234063242740,BD2GI,AOML,USCG,South
2016-02-12T04:59:31Z,1455253171,2016,5,0,43.208,43.208,-68.7948,-142.9258,992.9,-0.23,-999.0,yes,yes,no,300234063242740,BD2GI,AOML,USCG,South
2016-02-12T06:00:00Z,1455256800,2016,6,0,43.25,43.25,-68.7942,-142.93179,993.3,-0.24,-999.0,yes,yes,no,300234063242740,BD2GI,AOML,USCG,South
2016-02-12T07:00:28Z,1455260429,2016,7,0,43.292,43.292,-68.7944,-142.938,993.7,-0.25,-999.0,yes,yes,no,300234063242740,BD2GI,AOML,USCG,South
2016-02-12T07:59:31Z,1455263971,2016,8,0,43.333,43.333,-68.7954,-142.94521,994.0,-0.24,-999.0,yes,yes,no,300234063242740,BD2GI,AOML,USCG,South
2016-02-12T09:00:00Z,1455267600,2016,9,0,43.375,43.375,-68.7974,-142.9534,994.2,-0.25,-999.0,yes,yes,no,300234063242740,BD2GI,AOML,USCG,South
2016-02-12T10:00:28Z,1455271229,2016,10,0,43.417,43.417,-68.8,-142.96201,994.5,-0.25,-999.0,yes,yes,no,300234063242740,BD2GI,AOML,USCG,South
2016-02-12T10:59:31Z,1455274771,2016,11,0,43.458,43.458,-68.8038,-142.9698,995.0,-0.26,-999.0,yes,yes,no,300234063242740,BD2GI,AOML,USCG,South
2016-02-12T12:00:00Z,1455278400,2016,12,0,43.5,43.5,-68.8072,-142.97459,995.4,-0.27,-999.0,yes,yes,no,300234063242740,BD2GI,AOML,USCG,South
2016-02-12T13:00:28Z,1455282029,2016,13,0,43.542,43.542,-68.8108,-142.9776,995.8,-0.27,-999.0,yes,yes,no,300234063242740,BD2GI,AOML,USCG,South
2016-02-12T13:59:31Z,1455285571,2016,14,0,43.583,43.583,-68.8132,-142.9774,996.2,-0.27,-999.0,yes,yes,no,300234063242740,BD2GI,AOML,USCG,South
2016-02-12T15:00:00Z,1455289200,2016,15,0,43.625,43.625,-68.8148,-142.97681,996.7,-0.27,-999.0,yes,yes,no,300234063242740,BD2GI,AOML,USCG,South
2016-02-12T16:00:28Z,1455292829,2016,16,0,43.667,43.667,-68.8156,-142.9774,997.5,-0.27,-999.0,yes,yes,no,300234063242740,BD2GI,AOML,USCG,South
2016-02-12T16:59:31Z,1455296371,2016,17,0,43.708,43.708,-68.8164,-142.9792,997.8,-0.25,-999.0,yes,yes,no,300234063242740,BD2GI,AOML,USCG,South
2016-02-12T18:00:00Z,1455300000,2016,18,0,43.75,43.75,-68.8172,-142.98219,998.0,-0.26,-999.0,yes,yes,no,300234063242740,BD2GI,AOML,USCG,South
2016-02-12T19:00:28Z,1455303629,2016,19,0,43.792,43.792,-68.8174,-142.98621,998.4,-0.25,-999.0,yes,yes,no,300234063242740,BD2GI,AOML,USCG,South
2016-02-12T19:59:31Z,1455307171,2016,20,0,43.833,43.833,-68.8182,-142.99181,998.8,-0.22,-999.0,yes,yes,no,300234063242740,BD2GI,AOML,USCG,South
2016-02-12T21:00:00Z,1455310800,2016,21,0,43.875,43.875,-68.82,-142.99699,999.1,-0.21,-999.0,yes,yes,no,300234063242740,BD2GI,AOML,USCG,South
2016-02-12T22:00:28Z,1455314429,2016,22,0,43.917,43.917,-68.8228,-143.0002,999.2,-0.2,-999.0,yes,yes,no,300234063242740,BD2GI,AOML,USCG,South
2016-02-12T22:59:31Z,1455317971,2016,23,0,43.958,43.958,-68.8264,-143.0032,999.5,-0.19,-999.0,yes,yes,no,300234063242740,BD2GI,AOML,USCG,South
2016-02-13T00:00:00Z,1455321600,2016,0,0,44.0,44.0,-68.8296,-143.0018,999.5,-0.19,-999.0,yes,yes,no,300234063242740,BD2GI,AOML,USCG,South
2016-02-13T01:00:28Z,1455325229,2016,1,0,44.042,44.042,-68.8328,-142.9984,999.4,-0.19,-999.0,yes,yes,no,300234063242740,BD2GI,AOML,USCG,South
2016-02-13T01:59:31Z,1455328771,2016,2,0,44.083,44.083,-68.8348,-142.9926,999.2,-0.2,-999.0,yes,yes,no,300234063242740,BD2GI,AOML,USCG,South
2016-02-13T03:00:00Z,1455332400,2016,3,0,44.125,44.125,-68.836,-142.9852,999.0,-0.21,-999.0,yes,yes,no,300234063242740,BD2GI,AOML,USCG,South
2016-02-13T04:00:28Z,1455336029,2016,4,0,44.167,44.167,-68.836,-142.97881,999.1,-0.23,-999.0,yes,yes,no,300234063242740,BD2GI,AOML,USCG,South
2016-02-13T04:59:31Z,1455339571,2016,5,0,44.208,44.208,-68.8336,-142.9722,999.2,-0.25,-999.0,yes,yes,no,300234063242740,BD2GI,AOML,USCG,South
2016-02-13T06:00:00Z,1455343200,2016,6,0,44.25,44.25,-68.8306,-142.9688,999.4,-0.28,-999.0,yes,yes,no,300234063242740,BD2GI,AOML,USCG,South
2016-02-13T07:00:28Z,1455346829,2016,7,0,44.292,44.292,-68.8282,-142.9708,999.6,-0.29,-999.0,yes,yes,no,300234063242740,BD2GI,AOML,USCG,South
2016-02-13T07:59:31Z,1455350371,2016,8,0,44.333,44.333,-68.8266,-142.9744,999.9,-0.29,-999.0,yes,yes,no,300234063242740,BD2GI,AOML,USCG,South
2016-02-13T09:00:00Z,1455354000,2016,9,0,44.375,44.375,-68.8266,-142.97839,1000.3,-0.3,-999.0,yes,yes,no,300234063242740,BD2GI,AOML,USCG,South
2016-02-13T10:00:28Z,1455357629,2016,10,0,44.417,44.417,-68.8278,-142.98261,1000.5,-0.31,-999.0,yes,yes,no,300234063242740,BD2GI,AOML,USCG,South
2016-02-13T10:59:31Z,1455361171,2016,11,0,44.458,44.458,-68.8296,-142.983,1001.1,-0.35,-999.0,yes,yes,no,300234063242740,BD2GI,AOML,USCG,South
2016-02-13T12:00:00Z,1455364800,2016,12,0,44.5,44.5,-68.832,-142.9814,1001.5,-0.39,-999.0,yes,yes,no,300234063242740,BD2GI,AOML,USCG,South
2016-02-13T13:00:28Z,1455368429,2016,13,0,44.542,44.542,-68.834,-142.9776,1001.8,-0.39,-999.0,yes,yes,no,300234063242740,BD2GI,AOML,USCG,South
2016-02-13T13:59:31Z,1455371971,2016,14,0,44.583,44.583,-68.8356,-142.97121,1002.0,-0.39,-999.0,yes,yes,no,300234063242740,BD2GI,AOML,USCG,South
2016-02-13T15:00:00Z,1455375600,2016,15,0,44.625,44.625,-68.8368,-142.965,1002.0,-0.38,-999.0,yes,yes,no,300234063242740,BD2GI,AOML,USCG,South
2016-02-13T16:00:28Z,1455379229,2016,16,0,44.667,44.667,-68.8374,-142.9574,1002.0,-0.36,-999.0,yes,yes,no,300234063242740,BD2GI,AOML,USCG,South
2016-02-13T16:59:31Z,1455382771,2016,17,0,44.708,44.708,-68.8372,-142.95061,1002.2,-0.34,-999.0,yes,yes,no,300234063242740,BD2GI,AOML,USCG,South
2016-02-13T18:00:00Z,1455386400,2016,18,0,44.75,44.75,-68.8362,-142.94701,1002.2,-0.33,-999.0,yes,yes,no,300234063242740,BD2GI,AOML,USCG,South
2016-02-13T19:00:28Z,1455390029,2016,19,0,44.792,44.792,-68.836,-142.9458,1002.3,-0.3,-999.0,yes,yes,no,300234063242740,BD2GI,AOML,USCG,South
2016-02-13T19:59:31Z,1455393571,2016,20,0,44.833,44.833,-68.8366,-142.9472,1002.2,-0.3,-999.0,yes,yes,no,300234063242740,BD2GI,AOML,USCG,South
2016-02-13T21:00:00Z,1455397200,2016,21,0,44.875,44.875,-68.8384,-142.94659,1002.0,-0.29,-999.0,yes,yes,no,300234063242740,BD2GI,AOML,USCG,South
2016-02-13T22:00:28Z,1455400829,2016,22,0,44.917,44.917,-68.8414,-142.9476,1001.9,-0.29,-999.0,yes,yes,no,300234063242740,BD2GI,AOML,USCG,South
2016-02-13T22:59:31Z,1455404371,2016,23,0,44.958,44.958,-68.8448,-142.9458,1001.5,-0.29,-999.0,yes,yes,no,300234063242740,BD2GI,AOML,USCG,South
2016-02-14T00:00:00Z,1455408000,2016,0,0,45.0,45.0,-68.8482,-142.94141,1001.0,-0.29,-999.0,yes,yes,no,300234063242740,BD2GI,AOML,USCG,South
2016-02-14T01:00:28Z,1455411629,2016,1,0,45.042,45.042,-68.8514,-142.9386,1000.4,-0.29,-999.0,yes,yes,no,300234063242740,BD2GI,AOML,USCG,South
2016-02-14T01:59:31Z,1455415171,2016,2,0,45.083,45.083,-68.8552,-142.9328,999.8,-0.29,-999.0,yes,yes,no,300234063242740,BD2GI,AOML,USCG,South
2016-02-14T03:00:00Z,1455418800,2016,3,0,45.125,45.125,-68.858,-142.9236,999.0,-0.29,-999.0,yes,yes,no,300234063242740,BD2GI,AOML,USCG,South
2016-02-14T04:00:28Z,1455422429,2016,4,0,45.167,45.167,-68.8606,-142.9142,998.4,-0.29,-999.0,yes,yes,no,300234063242740,BD2GI,AOML,USCG,South
2016-02-14T04:59:31Z,1455425971,2016,5,0,45.208,45.208,-68.8628,-142.9044,997.5,-0.28,-999.0,yes,yes,no,300234063242740,BD2GI,AOML,USCG,South
2016-02-14T06:00:00Z,1455429600,2016,6,0,45.25,45.25,-68.8642,-142.89661,996.8,-0.28,-999.0,yes,yes,no,300234063242740,BD2GI,AOML,USCG,South
2016-02-14T07:00:28Z,1455433229,2016,7,0,45.292,45.292,-68.8656,-142.8858,996.4,-0.29,-999.0,yes,yes,no,300234063242740,BD2GI,AOML,USCG,South
2016-02-14T07:59:31Z,1455436771,2016,8,0,45.333,45.333,-68.866,-142.8766,996.1,-0.28,-999.0,yes,yes,no,300234063242740,BD2GI,AOML,USCG,South
2016-02-14T09:00:00Z,1455440400,2016,9,0,45.375,45.375,-68.8662,-142.865,996.2,-0.28,-999.0,yes,yes,no,300234063242740,BD2GI,AOML,USCG,South
2016-02-14T10:00:28Z,1455444029,2016,10,0,45.417,45.417,-68.8658,-142.8578,996.6,-0.3,-999.0,yes,yes,no,300234063242740,BD2GI,AOML,USCG,South
2016-02-14T10:59:31Z,1455447571,2016,11,0,45.458,45.458,-68.8654,-142.85519,996.9,-0.33,-999.0,yes,yes,no,300234063242740,BD2GI,AOML,USCG,South
2016-02-14T12:00:00Z,1455451200,2016,12,0,45.5,45.5,-68.866,-142.8546,997.2,-0.34,-999.0,yes,yes,no,300234063242740,BD2GI,AOML,USCG,South
2016-02-14T13:00:28Z,1455454829,2016,13,0,45.542,45.542,-68.8676,-142.853,997.8,-0.36,-999.0,yes,yes,no,300234063242740,BD2GI,AOML,USCG,South
2016-02-14T13:59:31Z,1455458371,2016,14,0,45.583,45.583,-68.8702,-142.84979,998.0,-0.38,-999.0,yes,yes,no,300234063242740,BD2GI,AOML,USCG,South
2016-02-14T15:00:00Z,1455462000,2016,15,0,45.625,45.625,-68.8728,-142.8446,998.3,-0.38,-999.0,yes,yes,no,300234063242740,BD2GI,AOML,USCG,South
2016-02-14T16:00:28Z,1455465629,2016,16,0,45.667,45.667,-68.8758,-142.839,998.5,-0.38,-999.0,yes,yes,no,300234063242740,BD2GI,AOML,USCG,South
2016-02-14T16:59:31Z,1455469171,2016,17,0,45.708,45.708,-68.8782,-142.8322,998.7,-0.4,-999.0,yes,yes,no,300234063242740,BD2GI,AOML,USCG,South
2016-02-14T18:00:00Z,1455472800,2016,18,0,45.75,45.75,-68.8808,-142.8246,999.2,-0.42,-999.0,yes,yes,no,300234063242740,BD2GI,AOML,USCG,South
2016-02-14T19:00:28Z,1455476429,2016,19,0,45.792,45.792,-68.8832,-142.81799,999.6,-0.41,-999.0,yes,yes,no,300234063242740,BD2GI,AOML,USCG,South
2016-02-14T19:59:31Z,1455479971,2016,20,0,45.833,45.833,-68.8856,-142.8098,999.9,-0.41,-999.0,yes,yes,no,300234063242740,BD2GI,AOML,USCG,South
2016-02-14T21:00:00Z,1455483600,2016,21,0,45.875,45.875,-68.8882,-142.801,1000.0,-0.41,-999.0,yes,yes,no,300234063242740,BD2GI,AOML,USCG,South
2016-02-14T22:00:28Z,1455487229,2016,22,0,45.917,45.917,-68.8896,-142.79179,1000.2,-0.43,-999.0,yes,yes,no,300234063242740,BD2GI,AOML,USCG,South
2016-02-14T22:59:31Z,1455490771,2016,23,0,45.958,45.958,-68.8908,-142.78259,1000.0,-0.4,-999.0,yes,yes,no,300234063242740,BD2GI,AOML,USCG,South
2016-02-15T00:00:00Z,1455494400,2016,0,0,46.0,46.0,-68.8918,-142.7766,999.8,-0.41,-999.0,yes,yes,no,300234063242740,BD2GI,AOML,USCG,South
2016-02-15T01:00:28Z,1455498029,2016,1,0,46.042,46.042,-68.893,-142.77,999.5,-0.42,-999.0,yes,yes,no,300234063242740,BD2GI,AOML,USCG,South
2016-02-15T01:59:31Z,1455501571,2016,2,0,46.083,46.083,-68.8952,-142.76401,998.9,-0.42,-999.0,yes,yes,no,300234063242740,BD2GI,AOML,USCG,South
2016-02-15T03:00:00Z,1455505200,2016,3,0,46.125,46.125,-68.8986,-142.7608,998.2,-0.42,-999.0,yes,yes,no,300234063242740,BD2GI,AOML,USCG,South
2016-02-15T04:00:28Z,1455508829,2016,4,0,46.167,46.167,-68.9022,-142.7554,997.2,-0.42,-999.0,yes,yes,no,300234063242740,BD2GI,AOML,USCG,South
2016-02-15T04:59:31Z,1455512371,2016,5,0,46.208,46.208,-68.905,-142.7486,996.1,-0.42,-999.0,yes,yes,no,300234063242740,BD2GI,AOML,USCG,South
2016-02-15T06:00:00Z,1455516000,2016,6,0,46.25,46.25,-68.9082,-142.7404,994.7,-0.42,-999.0,yes,yes,no,300234063242740,BD2GI,AOML,USCG,South
2016-02-15T07:00:28Z,1455519629,2016,7,0,46.292,46.292,-68.9112,-142.72881,992.8,-0.42,-999.0,yes,yes,no,300234063242740,BD2GI,AOML,USCG,South
2016-02-15T07:59:31Z,1455523171,2016,8,0,46.333,46.333,-68.9146,-142.71699,990.3,-0.41,-999.0,yes,yes,no,300234063242740,BD2GI,AOML,USCG,South
2016-02-15T09:00:00Z,1455526800,2016,9,0,46.375,46.375,-68.9174,-142.70419,987.9,-0.4,-999.0,yes,yes,no,300234063242740,BD2GI,AOML,USCG,South
2016-02-15T10:00:28Z,1455530429,2016,10,0,46.417,46.417,-68.9198,-142.6884,985.1,-0.38,-999.0,yes,yes,no,300234063242740,BD2GI,AOML,USCG,South
2016-02-15T10:59:31Z,1455533971,2016,11,0,46.458,46.458,-68.9216,-142.672,982.6,-0.35,-999.0,yes,yes,no,300234063242740,BD2GI,AOML,USCG,South
2016-02-15T12:00:00Z,1455537600,2016,12,0,46.5,46.5,-68.9216,-142.6554,980.5,-0.34,-999.0,yes,yes,no,300234063242740,BD2GI,AOML,USCG,South
2016-02-15T13:00:28Z,1455541229,2016,13,0,46.542,46.542,-68.9206,-142.6418,979.0,-0.32,-999.0,yes,yes,no,300234063242740,BD2GI,AOML,USCG,South
2016-02-15T13:59:31Z,1455544771,2016,14,0,46.583,46.583,-68.9184,-142.63001,978.7,-0.3,-999.0,yes,yes,no,300234063242740,BD2GI,AOML,USCG,South
2016-02-15T15:00:00Z,1455548400,2016,15,0,46.625,46.625,-68.9158,-142.61999,979.3,-0.28,-999.0,yes,yes,no,300234063242740,BD2GI,AOML,USCG,South
2016-02-15T16:00:28Z,1455552029,2016,16,0,46.667,46.667,-68.914,-142.6154,980.3,-0.28,-999.0,yes,yes,no,300234063242740,BD2GI,AOML,USCG,South
2016-02-15T16:59:31Z,1455555571,2016,17,0,46.708,46.708,-68.912,-142.61301,981.8,-0.28,-999.0,yes,yes,no,300234063242740,BD2GI,AOML,USCG,South
2016-02-15T18:00:00Z,1455559200,2016,18,0,46.75,46.75,-68.9116,-142.6114,983.3,-0.28,-999.0,yes,yes,no,300234063242740,BD2GI,AOML,USCG,South
2016-02-15T19:00:28Z,1455562829,2016,19,0,46.792,46.792,-68.9122,-142.61099,985.0,-0.27,-999.0,yes,yes,no,300234063242740,BD2GI,AOML,USCG,South
2016-02-15T19:59:31Z,1455566371,2016,20,0,46.833,46.833,-68.9136,-142.6098,987.0,-0.28,-999.0,yes,yes,no,300234063242740,BD2GI,AOML,USCG,South
2016-02-15T21:00:00Z,1455570000,2016,21,0,46.875,46.875,-68.9152,-142.6064,988.6,-0.28,-999.0,yes,yes,no,300234063242740,BD2GI,AOML,USCG,South
2016-02-15T22:00:28Z,1455573629,2016,22,0,46.917,46.917,-68.917,-142.60181,990.4,-0.29,-999.0,yes,yes,no,300234063242740,BD2GI,AOML,USCG,South
2016-02-15T22:59:31Z,1455577171,2016,23,0,46.958,46.958,-68.9194,-142.5976,991.5,-0.31,-999.0,yes,yes,no,300234063242740,BD2GI,AOML,USCG,South
2016-02-16T00:00:00Z,1455580800,2016,0,0,47.0,47.0,-68.9216,-142.59,992.4,-0.32,-999.0,yes,yes,no,300234063242740,BD2GI,AOML,USCG,South
2016-02-16T01:00:28Z,1455584429,2016,1,0,47.042,47.042,-68.9238,-142.58121,993.0,-0.34,-999.0,yes,yes,no,300234063242740,BD2GI,AOML,USCG,South
2016-02-16T01:59:31Z,1455587971,2016,2,0,47.083,47.083,-68.926,-142.5728,993.4,-0.33,-999.0,yes,yes,no,300234063242740,BD2GI,AOML,USCG,South
2016-02-16T03:00:00Z,1455591600,2016,3,0,47.125,47.125,-68.9276,-142.56441,993.8,-0.32,-999.0,yes,yes,no,300234063242740,BD2GI,AOML,USCG,South
2016-02-16T04:00:28Z,1455595229,2016,4,0,47.167,47.167,-68.9288,-142.5544,993.6,-0.32,-999.0,yes,yes,no,300234063242740,BD2GI,AOML,USCG,South
2016-02-16T04:59:31Z,1455598771,2016,5,0,47.208,47.208,-68.9292,-142.5468,993.1,-0.33,-999.0,yes,yes,no,300234063242740,BD2GI,AOML,USCG,South
2016-02-16T06:00:00Z,1455602400,2016,6,0,47.25,47.25,-68.9302,-142.5416,992.5,-0.34,-999.0,yes,yes,no,300234063242740,BD2GI,AOML,USCG,South
2016-02-16T07:00:28Z,1455606029,2016,7,0,47.292,47.292,-68.9318,-142.53979,991.6,-0.37,-999.0,yes,yes,no,300234063242740,BD2GI,AOML,USCG,South
2016-02-16T07:59:31Z,1455609571,2016,8,0,47.333,47.333,-68.9332,-142.5368,990.6,-0.36,-999.0,yes,yes,no,300234063242740,BD2GI,AOML,USCG,South
2016-02-16T09:00:00Z,1455613200,2016,9,0,47.375,47.375,-68.9352,-142.53301,989.4,-0.36,-999.0,yes,yes,no,300234063242740,BD2GI,AOML,USCG,South
2016-02-16T10:00:28Z,1455616829,2016,10,0,47.417,47.417,-68.938,-142.5284,988.2,-0.38,-999.0,yes,yes,no,300234063242740,BD2GI,AOML,USCG,South
2016-02-16T10:59:31Z,1455620371,2016,11,0,47.458,47.458,-68.9414,-142.5246,986.5,-0.38,-999.0,yes,yes,no,300234063242740,BD2GI,AOML,USCG,South
2016-02-16T12:00:00Z,1455624000,2016,12,0,47.5,47.5,-68.9454,-142.5206,985.8,-0.38,-999.0,yes,yes,no,300234063242740,BD2GI,AOML,USCG,South
2016-02-16T13:00:28Z,1455627629,2016,13,0,47.542,47.542,-68.9492,-142.5146,984.1,-0.38,-999.0,yes,yes,no,300234063242740,BD2GI,AOML,USCG,South
2016-02-16T13:59:31Z,1455631171,2016,14,0,47.583,47.583,-68.953,-142.50681,982.9,-0.37,-999.0,yes,yes,no,300234063242740,BD2GI,AOML,USCG,South
2016-02-16T15:00:00Z,1455634800,2016,15,0,47.625,47.625,-68.9582,-142.50101,981.9,-0.37,-999.0,yes,yes,no,300234063242740,BD2GI,AOML,USCG,South
2016-02-16T16:00:28Z,1455638429,2016,16,0,47.667,47.667,-68.9616,-142.49339,981.2,-0.38,-999.0,yes,yes,no,300234063242740,BD2GI,AOML,USCG,South
2016-02-16T16:59:31Z,1455641971,2016,17,0,47.708,47.708,-68.9642,-142.4868,980.5,-0.35,-999.0,yes,yes,no,300234063242740,BD2GI,AOML,USCG,South
2016-02-16T18:00:00Z,1455645600,2016,18,0,47.75,47.75,-68.9666,-142.48061,980.0,-0.35,-999.0,yes,yes,no,300234063242740,BD2GI,AOML,USCG,South
2016-02-16T19:00:28Z,1455649229,2016,19,0,47.792,47.792,-68.969,-142.4796,980.2,-0.34,-999.0,yes,yes,no,300234063242740,BD2GI,AOML,USCG,South
2016-02-16T19:59:31Z,1455652771,2016,20,0,47.833,47.833,-68.9708,-142.4808,979.9,-0.34,-999.0,yes,yes,no,300234063242740,BD2GI,AOML,USCG,South
2016-02-16T21:00:00Z,1455656400,2016,21,0,47.875,47.875,-68.9728,-142.48219,980.0,-0.32,-999.0,yes,yes,no,300234063242740,BD2GI,AOML,USCG,South
2016-02-16T22:00:28Z,1455660029,2016,22,0,47.917,47.917,-68.9758,-142.483,980.5,-0.31,-999.0,yes,yes,no,300234063242740,BD2GI,AOML,USCG,South